| time (UTC) | temp F | wind direction | speed knots | gust knots | rain 1hr in | rain 24hr in | rain mn in | humidity % | barometer mb |
| 20260504183105 | 74 | 150 | 2.6 | 10.4 | 0.00 | 0.00 | 0.00 | 38 | 1015.0 |
| 20260504181606 | 73 | 150 | 3.5 | 7.8 | 0.00 | 0.00 | 0.00 | 39 | 1015.2 |
| 20260504180126 | 73 | 150 | 3.5 | 11.3 | 0.00 | 0.00 | 0.00 | 39 | 1015.4 |
| 20260504174558 | 73 | 150 | 0.9 | 5.2 | 0.00 | 0.00 | 0.00 | 40 | 1015.4 |
| 20260504173108 | 73 | 150 | 1.7 | 6.1 | 0.00 | 0.00 | 0.00 | 39 | 1015.5 |
| 20260504171612 | 71 | 150 | 3.5 | 7.0 | 0.00 | 0.00 | 0.00 | 41 | 1015.5 |
| 20260504160112 | 70 | 150 | 1.7 | 6.1 | 0.00 | 0.00 | 0.00 | 42 | 1016.6 |
| 20260504150104 | 66 | 150 | 3.5 | 7.0 | 0.00 | 0.00 | 0.00 | 44 | 1017.4 |
| 20260504081600 | 42 | 0 | 0.0 | 0.0 | 0.00 | 0.00 | 0.00 | 86 | 1016.6 |
| 20260504080103 | 42 | 0 | 0.0 | 0.9 | 0.00 | 0.00 | 0.00 | 86 | 1016.5 |
| 20260504060104 | 44 | 0 | 0.0 | 0.0 | 0.00 | 0.00 | 0.00 | 81 | 1016.7 |
| 20260504044559 | 47 | 150 | 0.0 | 1.7 | 0.00 | 0.00 | 0.00 | 76 | 1017.0 |
| 20260504043101 | 48 | 150 | 0.0 | 0.9 | 0.00 | 0.00 | 0.00 | 73 | 1016.8 |
| 20260504041609 | 50 | 0 | 0.0 | 0.0 | 0.00 | 0.00 | 0.00 | 70 | 1016.7 |
| 20260504034625 | 49 | 0 | 0.0 | 0.0 | 0.00 | 0.00 | 0.00 | 71 | 1016.8 |
| 20260504033110 | 49 | 0 | 0.0 | 0.9 | 0.00 | 0.00 | 0.00 | 70 | 1016.7 |
| 20260504031559 | 49 | 0 | 0.0 | 0.0 | 0.00 | 0.00 | 0.00 | 68 | 1016.9 |
| 20260504030058 | 50 | 0 | 0.0 | 0.0 | 0.00 | 0.00 | 0.00 | 68 | 1017.0 |
| 20260504024559 | 50 | 0 | 0.0 | 0.0 | 0.00 | 0.00 | 0.00 | 67 | 1016.9 |
| 20260504023058 | 51 | 0 | 0.0 | 0.9 | 0.00 | 0.00 | 0.00 | 67 | 1016.8 |
| 20260504021600 | 51 | 150 | 0.0 | 0.0 | 0.00 | 0.00 | 0.00 | 63 | 1016.7 |
| 20260504020132 | 51 | 150 | 0.0 | 0.0 | 0.00 | 0.00 | 0.00 | 64 | 1016.6 |
| 20260504014603 | 52 | 0 | 0.0 | 0.0 | 0.00 | 0.00 | 0.00 | 64 | 1016.1 |
| 20260504013125 | 53 | 0 | 0.0 | 0.0 | 0.00 | 0.00 | 0.00 | 62 | 1015.9 |
| 20260504011557 | 55 | 0 | 0.0 | 0.0 | 0.00 | 0.00 | 0.00 | 60 | 1015.8 |
| 20260504010101 | 56 | 0 | 0.0 | 0.0 | 0.00 | 0.00 | 0.00 | 57 | 1015.8 |
| 20260504004559 | 58 | 0 | 0.0 | 0.0 | 0.00 | 0.00 | 0.00 | 52 | 1015.7 |
| 20260504003058 | 59 | 0 | 0.0 | 0.0 | 0.00 | 0.00 | 0.00 | 49 | 1015.6 |
| 20260504001601 | 61 | 0 | 0.0 | 0.0 | 0.00 | 0.00 | 0.00 | 46 | 1015.4 |
| 20260504000107 | 62 | 150 | 0.0 | 0.0 | 0.00 | 0.00 | 0.00 | 41 | 1015.4 |
| 20260503234600 | 64 | 150 | 0.9 | 1.7 | 0.00 | 0.00 | 0.00 | 39 | 1015.3 |
| 20260503233059 | 65 | 150 | 1.7 | 5.2 | 0.00 | 0.00 | 0.00 | 36 | 1015.2 |
| 20260503231559 | 67 | 150 | 1.7 | 4.3 | 0.00 | 0.00 | 0.00 | 35 | 1015.4 |
| 20260503230104 | 66 | 150 | 3.5 | 7.0 | 0.00 | 0.00 | 0.00 | 32 | 1015.3 |
| 20260503224613 | 66 | 150 | 2.6 | 7.0 | 0.00 | 0.00 | 0.00 | 33 | 1015.3 |
| 20260503223100 | 67 | 150 | 3.5 | 7.8 | 0.00 | 0.00 | 0.00 | 30 | 1015.4 |
| 20260503221604 | 68 | 150 | 1.7 | 7.0 | 0.00 | 0.00 | 0.00 | 28 | 1015.4 |
| 20260503220059 | 67 | 150 | 2.6 | 7.8 | 0.00 | 0.00 | 0.00 | 27 | 1015.4 |
| 20260503214559 | 66 | 150 | 3.5 | 9.6 | 0.00 | 0.00 | 0.00 | 29 | 1015.6 |
| 20260503213103 | 67 | 150 | 6.1 | 10.4 | 0.00 | 0.00 | 0.00 | 29 | 1015.8 |
| 20260503211600 | 66 | 150 | 3.5 | 7.8 | 0.00 | 0.00 | 0.00 | 30 | 1015.9 |
| 20260503210059 | 66 | 150 | 3.5 | 10.4 | 0.00 | 0.00 | 0.00 | 29 | 1016.0 |
| 20260503204620 | 65 | 150 | 2.6 | 7.0 | 0.00 | 0.00 | 0.00 | 30 | 1016.2 |
| 20260503203101 | 65 | 150 | 5.2 | 13.9 | 0.00 | 0.00 | 0.00 | 30 | 1016.5 |
| 20260503201559 | 64 | 150 | 3.5 | 11.3 | 0.00 | 0.00 | 0.00 | 32 | 1016.6 |
| 20260503200100 | 65 | 150 | 2.6 | 13.0 | 0.00 | 0.00 | 0.00 | 32 | 1017.0 |
| 20260503194610 | 64 | 150 | 3.5 | 8.7 | 0.00 | 0.00 | 0.00 | 33 | 1017.3 |
| 20260503193117 | 65 | 150 | 3.5 | 9.6 | 0.00 | 0.00 | 0.00 | 33 | 1017.3 |
| 20260503191618 | 64 | 150 | 1.7 | 10.4 | 0.00 | 0.00 | 0.00 | 32 | 1017.4 |
| 20260503184616 | 63 | 150 | 3.5 | 8.7 | 0.00 | 0.00 | 0.00 | 31 | 1017.8 |